Location: Unspecified
(0.0000°N, 0.0000°E)
Time: 20:12:11
(UTC+01:00)

NOAA 12 - Visible Passes

Search period start: 11 February 2016 00:00
Search period end: 21 February 2016 00:00
Orbit: 797 x 815 km, 98.6° (Epoch: 11 February)

Date Brightness Start Highest point End Pass type
(mag) Time Alt. Az. Time Alt. Az. Time Alt. Az.
11 Feb 4.1 19:57:21 10° SSE 20:02:32 59° ENE 20:07:42 10° N visible
12 Feb 4.9 19:33:09 10° SE 19:37:40 29° ENE 19:42:11 10° NNE visible
12 Feb 6.8 21:13:46 10° SW 21:17:11 18° WSW 21:20:35 10° WNW visible
13 Feb 5.7 20:47:35 10° SSW 20:52:19 34° WSW 20:57:04 10° NW visible
14 Feb 4.4 20:22:12 10° S 20:27:27 70° WSW 20:32:42 10° NNW visible
15 Feb 4.1 19:57:23 10° SSE 20:02:35 59° ENE 20:07:46 10° N visible
16 Feb 4.9 19:33:10 10° SE 19:37:43 29° ENE 19:42:15 10° NNE visible
16 Feb 6.8 21:13:48 10° SW 21:17:13 18° WSW 21:20:38 10° WNW visible
17 Feb 5.7 20:47:37 10° SSW 20:52:21 34° WSW 20:57:07 10° NW visible
18 Feb 4.4 20:22:14 10° S 20:27:29 70° WSW 20:32:45 10° NNW visible
19 Feb 4.1 19:57:25 10° SSE 20:02:37 59° ENE 20:07:49 10° N visible
20 Feb 4.9 19:33:12 10° SE 19:37:45 30° ENE 19:42:18 10° NNE visible
20 Feb 6.8 21:13:50 10° SW 21:17:15 18° WSW 21:20:41 10° WNW visible
